Terminal Aerodrome Forecast
Issued by NWS Omaha/Valley, NE

Home | Current Version | Previous Version | Graphics & Text | Print | Product List | Glossary On
Versions: 1 2 3 4 5 6 7 8 9 10 11 12 13 14 15 16 17 18 19 20 21 22 23 24 25 26 27 28 29 30 31 32 33 34 35 36 37 38 39 40 41 42 43 44 45 46 47 48 49 50
000
FTUS43 KOAX 021134
TAFOFK
TAF
KOFK 021134Z 0212/0312 03004KT 4SM -RA BR OVC020
      TEMPO 0212/0215 2SM -TSRA BR OVC010CB
     FM021500 12009KT 5SM -SHRA BR OVC015
      TEMPO 0215/0219 3SM -TSRA BR OVC012CB
     FM022000 07007KT P6SM OVC040
     FM030500 VRB04KT 5SM BR OVC035=

USA.gov is the U.S. government's official web portal to all federal, state and local government web resources and services.